0 HST 1 20580U 90037B 25262.88746375 .00006850 00000-0 24776-3 0 9997 2 20580 28.4671 122.5383 0002763 36.8967 323.1818 15.26379461747161 0 ISS (ZARYA) 1 25544U 98067A 25263.15311495 .00015260 00000-0 27067-3 0 9996 2 25544 51.6337 196.3707 0004371 358.2759 1.8214 15.50431661529895 0 CXO 1 25867U 99040B 25264.64061064 .00000851 00000-0 00000-0 0 9990 2 25867 51.4661 125.6055 8273394 310.4746 0.4854 0.37809678 16307